Hays, KS

12:34 AM CST on January 24, 2018 (GMT -0600)
Hays Regional

Weather History for KHYS - July, 2013

Change the Weather History Date:

Tuesday, July 9, 2013

  Actual Average Record
Temperature  
Mean Temperature 90 °F -  
Max Temperature 107 °F 90 °F 107 °F (2013)
Min Temperature 73 °F 63 °F 60 °F (2008)
Cooling Degree Days 25    
Growing Degree Days 40 (Base 50)    
Moisture  
Dew Point 62 °F    
Average Humidity 45    
Maximum Humidity 78    
Minimum Humidity 19    
Precipitation  
Precipitation 0.00 in - - ()
Sea Level Pressure  
Sea Level Pressure 29.94 in    
Wind  
Wind Speed 13 mph (SE)    
Max Wind Speed 25 mph    
Max Gust Speed 33 mph    
Visibility 9 miles    
Events Thunderstorm    
Averages and records for this station are not official NWS values.
T = Trace of Precipitation, MM = Missing Value Source: NWS Daily Summary

Daily Weather History Graph

Daily Weather History Graph

Search for Another Location

Airport or City:

Trip Planner

Search our weather history database for the weather conditions in past years. The results will help you decide how hot, cold, wet, or windy it might be!

Date:

Astronomy

Jul. 09, 2013 Rise Set
Actual Time 6:20 AM CDT 9:04 PM CDT
Civil Twilight 5:48 AM CDT 9:35 PM CDT
Nautical Twilight 5:09 AM CDT 10:14 PM CDT
Astronomical Twilight 4:24 AM CDT 10:59 PM CDT
Moon 7:44 AM CDT (7/9) 9:44 PM CDT (7/9)
Length of Visible Light 15h 46m
Length of Day
14h 43m
New Moon, 2% of the Moon is Illuminated
Jul 9
New Moon
Jul 15
First Quarter
Jul 22
Full
Jul 29
Last Quarter
Aug 6
New

Hourly Weather History & Observations

Time (CDT) Temp. Heat Index Dew Point Humidity Pressure Visibility Wind Dir Wind Speed Gust Speed Precip Events Conditions
12:15 AM 84.2 °F 83.5 °F 57.2 °F 40% 29.93 in 10.0 mi North - - N/A   Clear
12:35 AM 84.2 °F 83.8 °F 59.0 °F 42% 29.93 in 10.0 mi NNE 20.7 mph 24.2 mph N/A   Clear
12:55 AM 84.2 °F 84.4 °F 60.8 °F 45% 29.94 in 10.0 mi NNE 18.4 mph 24.2 mph N/A   Clear
1:15 AM 84.2 °F 84.4 °F 60.8 °F 45% 29.94 in 10.0 mi NNE 19.6 mph 23.0 mph N/A   Clear
1:35 AM 84.2 °F 84.4 °F 60.8 °F 45% 29.94 in 10.0 mi NNE 18.4 mph 23.0 mph N/A   Clear
1:55 AM 84.2 °F 85.0 °F 62.6 °F 48% 29.94 in 10.0 mi NNE 19.6 mph 23.0 mph N/A   Clear
2:15 AM 84.2 °F 85.0 °F 62.6 °F 48% 29.95 in 10.0 mi NNE 17.3 mph 21.9 mph N/A   Clear
2:35 AM 84.2 °F 85.0 °F 62.6 °F 48% 29.95 in 10.0 mi NNE 16.1 mph 24.2 mph N/A   Clear
2:55 AM 84.2 °F 85.0 °F 62.6 °F 48% 29.95 in 10.0 mi NNE 19.6 mph 24.2 mph N/A   Clear
3:15 AM 82.4 °F 83.4 °F 62.6 °F 51% 29.95 in 10.0 mi NNW 17.3 mph - N/A   Clear
3:35 AM 82.4 °F 83.4 °F 62.6 °F 51% 29.95 in 10.0 mi South 16.1 mph - N/A   Clear
3:55 AM 82.4 °F 83.9 °F 64.4 °F 54% 29.95 in 10.0 mi SSW 15.0 mph 21.9 mph N/A Thunderstorm Partly Cloudy
4:15 AM 80.6 °F 82.3 °F 64.4 °F 58% 29.95 in 10.0 mi SSW 8.1 mph - N/A Thunderstorm Thunderstorm
4:35 AM 80.6 °F 82.3 °F 64.4 °F 58% 29.96 in 10.0 mi North - - N/A Thunderstorm Partly Cloudy
4:55 AM 80.6 °F 81.8 °F 62.6 °F 54% 29.95 in 10.0 mi North - - N/A Thunderstorm Partly Cloudy
5:15 AM 80.6 °F 81.8 °F 62.6 °F 54% 29.94 in 10.0 mi North - - N/A Thunderstorm Partly Cloudy
5:35 AM 80.6 °F 81.8 °F 62.6 °F 54% 29.93 in 10.0 mi North - - N/A   Clear
5:55 AM 80.6 °F 81.8 °F 62.6 °F 54% 29.94 in 10.0 mi North - - N/A   Clear
6:15 AM 78.8 °F - 62.6 °F 57% 29.94 in 10.0 mi North - - N/A   Clear
6:35 AM 78.8 °F - 62.6 °F 57% 29.94 in 10.0 mi North - - N/A   Clear
6:55 AM 78.8 °F - 62.6 °F 57% 29.94 in 10.0 mi North - - N/A   Clear
7:15 AM 78.8 °F - 62.6 °F 57% 29.94 in 10.0 mi North - - N/A   Clear
7:35 AM 80.6 °F 81.8 °F 62.6 °F 54% 29.94 in 10.0 mi SSE 12.7 mph - N/A   Clear
7:55 AM 80.6 °F 81.8 °F 62.6 °F 54% 29.95 in 10.0 mi SSW 10.4 mph - N/A   Clear
8:15 AM 82.4 °F 83.4 °F 62.6 °F 51% 29.95 in 10.0 mi SSW 8.1 mph - N/A   Clear
8:35 AM 84.2 °F 85.0 °F 62.6 °F 48% 29.95 in 10.0 mi SW 11.5 mph - N/A   Clear
8:55 AM 86.0 °F 86.6 °F 62.6 °F 45% 29.95 in 10.0 mi SW 12.7 mph 18.4 mph N/A   Clear
9:15 AM 84.2 °F 84.4 °F 60.8 °F 45% 29.95 in 10.0 mi SW 13.8 mph - N/A   Clear
9:35 AM 87.8 °F 87.6 °F 60.8 °F 40% 29.95 in 10.0 mi SW 15.0 mph - N/A   Clear
9:55 AM 87.8 °F 87.6 °F 60.8 °F 40% 29.94 in 10.0 mi SW 13.8 mph 20.7 mph N/A   Clear
10:15 AM 89.6 °F 89.5 °F 60.8 °F 38% 29.94 in 10.0 mi WSW 13.8 mph - N/A   Clear
10:35 AM 91.4 °F 91.4 °F 60.8 °F 36% 29.95 in 10.0 mi WSW 13.8 mph 18.4 mph N/A   Clear
10:55 AM 91.4 °F 91.4 °F 60.8 °F 36% 29.95 in 10.0 mi WSW 11.5 mph - N/A   Clear
11:15 AM 93.2 °F 92.6 °F 59.0 °F 32% 29.96 in 10.0 mi WSW 11.5 mph - N/A Thunderstorm Thunderstorm
11:35 AM 84.2 °F 85.6 °F 64.4 °F 51% 29.95 in 10.0 mi ENE 4.6 mph - N/A Thunderstorm Thunderstorm
11:55 AM 86.0 °F 88.2 °F 66.2 °F 51% 29.96 in 10.0 mi SW 4.6 mph - N/A   Partly Cloudy
12:15 PM 91.4 °F 93.2 °F 64.4 °F 41% 29.95 in 10.0 mi SSW 5.8 mph - N/A Thunderstorm Clear
12:35 PM 96.8 °F 98.0 °F 62.6 °F 32% 29.95 in 10.0 mi SSW 8.1 mph - N/A   Clear
12:55 PM 96.8 °F 97.1 °F 60.8 °F 30% 29.95 in 10.0 mi SW 4.6 mph - N/A   Clear
1:15 PM 96.8 °F 97.1 °F 60.8 °F 30% 29.94 in 10.0 mi Calm Calm - N/A   Clear
1:35 PM 98.6 °F 99.4 °F 60.8 °F 29% 29.94 in 10.0 mi ESE 3.5 mph - N/A   Clear
1:55 PM 98.6 °F 98.5 °F 59.0 °F 27% 29.93 in 10.0 mi Calm Calm - N/A   Clear
2:15 PM 100.4 °F 100.2 °F 59.0 °F 25% 29.92 in 10.0 mi SSE 5.8 mph - N/A   Clear
2:35 PM 100.4 °F 99.7 °F 57.2 °F 24% 29.92 in 10.0 mi SE 3.5 mph - N/A   Clear
2:55 PM 102.2 °F 100.9 °F 55.4 °F 21% 29.92 in 10.0 mi Calm Calm - N/A   Clear
3:15 PM 102.2 °F 100.9 °F 55.4 °F 21% 29.91 in 10.0 mi Calm Calm - N/A   Clear
3:35 PM 104.0 °F 102.9 °F 55.4 °F 20% 29.90 in 6.0 mi ENE 6.9 mph - N/A   Partly Cloudy
3:55 PM 104.0 °F 102.9 °F 55.4 °F 20% 29.89 in 6.0 mi NE 3.5 mph - N/A   Partly Cloudy
4:15 PM 105.8 °F 104.9 °F 55.4 °F 19% 29.88 in 10.0 mi NE 4.6 mph - N/A   Partly Cloudy
4:35 PM 105.8 °F 104.9 °F 55.4 °F 19% 29.87 in 4.0 mi NE 6.9 mph - N/A   Partly Cloudy
4:55 PM 107.6 °F 107.5 °F 57.2 °F 19% 29.87 in 5.0 mi NE 3.5 mph - N/A   Partly Cloudy
5:15 PM 107.6 °F 107.5 °F 57.2 °F 19% 29.86 in 9.0 mi NNE 9.2 mph - N/A   Clear
5:35 PM 105.8 °F 104.9 °F 55.4 °F 19% 29.86 in 3.0 mi NNE 6.9 mph - N/A   Partly Cloudy
5:55 PM 105.8 °F 105.5 °F 57.2 °F 20% 29.85 in 3.0 mi NE 6.9 mph - N/A   Scattered Clouds
6:15 PM 104.0 °F 102.9 °F 55.4 °F 20% 29.85 in 1.2 mi NE 5.8 mph - N/A   Scattered Clouds
6:35 PM 102.2 °F 101.4 °F 57.2 °F 22% 29.86 in 3.0 mi NE 8.1 mph - N/A   Partly Cloudy
6:55 PM 100.4 °F 100.2 °F 59.0 °F 25% 29.88 in 10.0 mi South 25.3 mph 29.9 mph N/A   Partly Cloudy
7:15 PM 91.4 °F 92.1 °F 62.6 °F 38% 29.94 in 10.0 mi SSW 19.6 mph 33.4 mph N/A Thunderstorm Mostly Cloudy
7:35 PM 84.2 °F 85.0 °F 62.6 °F 48% 29.95 in 10.0 mi SSW 16.1 mph 28.8 mph N/A Thunderstorm Mostly Cloudy
7:55 PM 78.8 °F - 66.2 °F 65% 30.00 in 8.0 mi SSW 10.4 mph - N/A Thunderstorm Overcast
8:15 PM 77.0 °F - 66.2 °F 69% 30.01 in 9.0 mi Calm Calm - N/A Thunderstorm Thunderstorm
8:35 PM 78.8 °F - 69.8 °F 74% 29.95 in 10.0 mi Calm Calm - N/A   Mostly Cloudy
8:55 PM 78.8 °F - 71.6 °F 78% 29.95 in 10.0 mi SSE 8.1 mph - N/A   Partly Cloudy
9:15 PM 78.8 °F - 69.8 °F 74% 29.97 in 10.0 mi South 9.2 mph - N/A   Clear
9:35 PM 77.0 °F - 66.2 °F 69% 29.97 in 10.0 mi South 9.2 mph - N/A   Clear
9:55 PM 75.2 °F - 66.2 °F 73% 29.98 in 10.0 mi SE 9.2 mph - N/A   Clear
10:15 PM 75.2 °F - 66.2 °F 73% 30.00 in 10.0 mi Calm Calm - N/A   Clear
10:35 PM 75.2 °F - 64.4 °F 69% 30.01 in 10.0 mi Calm Calm - N/A   Clear
10:55 PM 73.4 °F - 66.2 °F 78% 30.01 in 10.0 mi ESE 5.8 mph - N/A   Clear
11:15 PM 75.2 °F - 64.4 °F 69% 30.02 in 10.0 mi North 10.4 mph - N/A   Clear
11:35 PM 77.0 °F - 64.4 °F 65% 30.02 in 10.0 mi NE 4.6 mph - N/A   Clear
11:55 PM 75.2 °F - 64.4 °F 69% 30.02 in 10.0 mi ESE 5.8 mph - N/A   Clear